Regional Weather Roundup
Issued by NWS Charleston, WV

Home | Current Version | Previous Version | Graphics & Text | Print | Product List | Glossary On
Versions: 1 2 3 4 5 6 7 8 9 10 11 12 13 14 15 16 17 18 19 20 21 22 23 24 25 26 27 28 29 30 31 32 33 34 35 36 37 38 39 40 41 42 43 44 45 46 47 48 49 50
000
ASUS41 KRLX 182110
RWRRLX
West Virginia Regional Weather Roundup
National Weather Service Charleston WV
500 PM EDT WED OCT 18 2017

Note: "fair" indicates few or no clouds below 12,000 feet with no
significant weather and/or obstructions to visibility.

WVZ003-182200-
Northern Panhandle of West Virginia

CITY           SKY/WX    TMP DP  RH WIND       PRES   REMARKS
WHEELING       SUNNY     69  40  34 VRB5      30.23F
$$

WVZ009-182200-
Northwest West Virginia

CITY           SKY/WX    TMP DP  RH WIND       PRES   REMARKS
PARKERSBURG    SUNNY     70  34  26 SE7       30.26F
$$

WVZ006-182200-
Western West Virginia

CITY           SKY/WX    TMP DP  RH WIND       PRES   REMARKS
HUNTINGTON     SUNNY     70  40  33 SW6       30.24F
$$

WVZ015-182200-
West Central West Virginia

CITY           SKY/WX    TMP DP  RH WIND       PRES   REMARKS
CHARLESTON     MOSUNNY   72  39  30 CALM      30.24F
$$

WVZ022-031-182200-
North Central West Virginia

CITY           SKY/WX    TMP DP  RH WIND       PRES   REMARKS
CLARKSBURG     SUNNY     71  30  21 S7        30.24F
MORGANTOWN     SUNNY     72  27  18 SW5       30.25F
$$

WVZ025-035-042-045-182200-
Southern West Virginia

CITY           SKY/WX    TMP DP  RH WIND       PRES   REMARKS
BECKLEY        SUNNY     65  38  36 SE9       30.29F
LOGAN            N/A     70  37  30 CALM      30.26F
BLUEFIELD      SUNNY     64  29  26 S5        30.31F
LEWISBURG      SUNNY     65  37  35 SE3       30.32S
$$

WVZ047-182200-
Northern Mountains of West Virginia

CITY           SKY/WX    TMP DP  RH WIND       PRES   REMARKS
ELKINS         SUNNY     72  35  25 NW7       30.26F
$$

WVZ052-182200-
Eastern Panhandle of West Virginia

CITY           SKY/WX    TMP DP  RH WIND       PRES   REMARKS
MARTINSBURG    SUNNY     68  41  37 S6        30.28F
PETERSBURG     SUNNY     71  40  32 E5        30.26F
$$



USA.gov is the U.S. government's official web portal to all federal, state and local government web resources and services.